DW5678 Kavala GR current weather conditions

sailwx.info

Wind from 050 at 0 knots gusting 6

Air temperature 17.8° C
Dewpoint 12.0° C

Last reported at 2017-May-24 05:01 UTC.
Time now 2017-May-24 05:54 UTC

Location: N 40°56' E 024°24'.
View on Google Maps.

See reports from other nearby stations

  
Tides and Currents Weather Stations Pressure Air Temp Water Temp Dewpoint Dewpoint Depression Visibility Wind Speed Wind Dir Waves Ship Positions
date/time (UTC)wind fromknots sea level pressurealtimeterstation pressurevisibilityair tempwater tempwave heightnotes
2017-May-24 05:01 050 0 gusting 6 17.8
2017-May-24 04:30 053 17.8
2017-May-24 04:15 042 17.8
2017-May-24 03:45 040 1 gusting 5 17.2
2017-May-24 03:30 064 0 gusting 5 17.2
2017-May-24 03:15 060 0 gusting 5 17.2
2017-May-24 03:00 041 1 gusting 6 17.2
2017-May-24 02:45 050 1 gusting 5 17.2
2017-May-24 01:45 012 1 gusting 6 17.8
2017-May-24 01:15 072 0 gusting 5 17.8
2017-May-24 00:45 064 0 gusting 6 17.8
2017-May-24 00:30 093 1 gusting 6 17.8
2017-May-24 00:00 053 2 gusting 6 17.8
2017-May-23 23:45 065 2 gusting 7 17.8
2017-May-23 23:30 037 2 gusting 6 18.3
2017-May-23 22:30 252 18.9
2017-May-23 22:15 251 18.9
2017-May-23 22:00 251 18.9
2017-May-23 18:30 248 20.0
2017-May-23 18:15 248 20.0
2017-May-23 18:00 244 20.0
2017-May-23 17:45 244 20.0
2017-May-23 17:30 244 20.0
2017-May-23 17:00 244 20.0
2017-May-23 16:45 244 20.6
2017-May-23 16:30 246 0 gusting 1 20.6
2017-May-23 16:15 246 20.0
2017-May-23 16:00 240 0 gusting 2 20.0
2017-May-23 15:45 199 0 gusting 2 20.0
2017-May-23 15:30 204 20.6
2017-May-23 15:15 139 1 gusting 4 20.6
2017-May-23 15:00 147 1 gusting 5 20.0
2017-May-23 14:30 325 1 gusting 5 20.0
2017-May-23 14:15 207 20.6
2017-May-23 14:00 184 1 gusting 5 20.6
2017-May-23 13:30 254 0 gusting 6 20.6
2017-May-23 13:15 146 1 gusting 6 21.1
2017-May-23 13:00 140 0 gusting 5 21.7
2017-May-23 12:45 155 1 gusting 6 21.1
2017-May-23 12:30 121 1 gusting 5 21.1
2017-May-23 11:30 197 2 gusting 6 21.7
2017-May-23 11:15 224 1 gusting 6 21.7
2017-May-23 11:00 197 0 gusting 5 21.7
2017-May-23 10:45 185 0 gusting 5 21.7
2017-May-23 10:30 232 21.7
2017-May-23 10:15 134 1 gusting 5 21.7
2017-May-23 10:00 222 0 gusting 4 21.1
2017-May-23 09:45 223 1 gusting 4 21.1
2017-May-23 09:30 191 0 gusting 2 20.6
2017-May-23 09:15 173 0 gusting 2 20.6
2017-May-23 09:00 163 20.6
2017-May-23 08:45 154 20.0
2017-May-23 08:15 154 19.4
2017-May-23 07:45 154 19.4
2017-May-23 07:30 154 20.0
2017-May-23 07:15 161 0 gusting 2 19.4
2017-May-23 07:00 153 0 gusting 4 19.4
2017-May-23 06:45 046 0 gusting 2 19.4
2017-May-23 06:30 040 19.4
2017-May-23 06:15 026 0 gusting 4 18.9
2017-May-23 06:00 088 0 gusting 5 18.9
2017-May-23 04:45 333 20.0
2017-May-23 04:30 333 19.4
2017-May-23 03:30 333 17.8
2017-May-23 03:15 333 17.8
2017-May-23 02:45 333 17.8
2017-May-23 02:30 333 17.8
2017-May-23 02:15 333 18.3
2017-May-23 01:45 333 18.3
2017-May-23 01:15 333 18.3
2017-May-23 01:00 333 17.8
2017-May-23 00:45 333 17.8
2017-May-23 00:15 333 17.8
2017-May-23 00:00 333 17.8
2017-May-22 23:45 333 17.8
2017-May-22 23:30 333 17.8
2017-May-22 23:15 333 17.8
2017-May-22 23:00 333 18.3
2017-May-22 22:45 333 18.3
2017-May-22 22:15 333 17.8
2017-May-22 22:00 333 18.3
2017-May-22 21:45 333 18.3
2017-May-22 21:30 333 18.3
2017-May-22 21:15 339 0 gusting 1 18.3
2017-May-22 21:00 342 17.8
2017-May-22 20:45 183 0 gusting 0 17.8
2017-May-22 20:30 211 17.8
2017-May-22 20:15 211 1 gusting 2 17.8
2017-May-22 20:00 194 17.8
2017-May-22 19:45 194 17.8
2017-May-22 19:15 194 18.3
2017-May-22 19:00 194 18.3
2017-May-22 18:45 194 18.9
2017-May-22 18:30 194 18.9
2017-May-22 18:15 194 18.9
2017-May-22 16:15 193 20.6
2017-May-22 15:30 042 0 gusting 2 21.1
2017-May-22 15:15 029 0 gusting 2 20.6
2017-May-22 15:00 059 20.6
2017-May-22 14:45 210 1 gusting 4 20.6
2017-May-22 14:30 193 0 gusting 4 20.6
2017-May-22 14:15 191 0 gusting 4 21.1
2017-May-22 14:00 227 1 gusting 6 21.1
2017-May-22 13:45 136 2 gusting 6 21.7
2017-May-22 13:30 143 1 gusting 4 21.7
2017-May-22 13:15 047 1 gusting 4 20.6
2017-May-22 13:00 148 0 gusting 2 20.0
2017-May-22 12:45 177 0 gusting 4 19.4
2017-May-22 12:30 169 20.6
2017-May-22 12:00 206 0 gusting 4 20.6
2017-May-22 11:45 164 1 gusting 4 20.6
2017-May-22 11:30 199 0 gusting 4 20.6
2017-May-22 11:15 199 20.6
2017-May-22 10:30 155 1 gusting 5 21.1
2017-May-22 10:15 169 0 gusting 5 21.1
2017-May-22 10:00 137 0 gusting 5 20.6
2017-May-22 09:45 184 0 gusting 4 20.6
2017-May-22 09:30 197 1 gusting 6 20.6
2017-May-22 08:45 100 1 gusting 6 20.6
2017-May-22 08:30 005 1 gusting 6 20.0
2017-May-22 08:15 307 3 gusting 10 20.0
2017-May-22 08:00 334 3 gusting 10 20.0
2017-May-22 07:45 301 2 gusting 6 20.0
2017-May-22 07:30 315 2 gusting 10 19.4
2017-May-22 07:15 025 4 gusting 10 19.4
2017-May-22 07:00 028 1 gusting 7 17.8
2017-May-22 06:45 309 2 gusting 8 17.2
2017-May-22 06:15 351 5 gusting 12 16.7
2017-May-22 05:45 357 5 gusting 17 16.7
2017-May-22 05:30 022 6 gusting 13 16.7
2017-May-22 05:00 335 7 gusting 15 16.7